Regional Weather Roundup
Issued by NWS

Home | Current Version | Previous Version | Text Only | Print | Product List | Glossary On
Versions: 1 2 3 4 5 6 7 8 9 10 11 12 13 14 15 16 17 18 19 20 21 22 23 24 25 26 27
000
ASUS45 KPSR 091710
RWRAZ

ARIZONA HOURLY REGIONAL WEATHER ROUNDUP
NATIONAL WEATHER SERVICE PHOENIX AZ
1000 AM MST FRI DEC 09 2016

NOTE: FAIR INDICATES FEW OR NO CLOUDS BELOW 12,000 FEET WITH NO
SIGNIFICANT WEATHER AND/OR OBSTRUCTIONS TO VISIBILITY.

AZZ001>003-036-091800-
NORTHWEST ARIZONA

CITY           SKY/WX    TMP DP  RH WIND       PRES   REMARKS
BULLHEAD CITY  CLOUDY    57  18  21 N14       30.29R
KINGMAN        CLOUDY    48  19  31 CALM      30.30R
$$

AZZ004>008-015-016-018-091800-
NORTH CENTRAL ARIZONA

CITY           SKY/WX    TMP DP  RH WIND       PRES   REMARKS
GRAND CANYON   CLOUDY    37  35  92 SW3       30.33S
WILLIAMS       CLOUDY    36  30  80 S3        30.33S
PRESCOTT       SUNNY     45  33  63 CALM      30.32F
FLAGSTAFF      PTSUNNY   37  32  82 SW6       30.34R WCI  32
PAYSON         SUNNY     46  32  57 SE6       30.37R
PAGE           PTSUNNY   36  11  35 CALM      30.34S
$$

AZZ009>014-017-091800-
NORTHEAST ARIZONA

CITY           SKY/WX    TMP DP  RH WIND       PRES   REMARKS
WINSLOW        MOSUNNY   39  26  59 VRB3      30.34F
SAINT JOHNS    MOSUNNY   40  26  57 E3        30.35S
WINDOW ROCK    MOSUNNY   35  24  64 CALM      30.35S
SHOW LOW       SUNNY     46  27  46 SW10      30.36R
$$

AZZ023-091800-
GREATER PHOENIX AREA

CITY           SKY/WX    TMP DP  RH WIND       PRES   REMARKS
PHOENIX        MOSUNNY   56  38  50 CALM      30.26R
BUCKEYE        SUNNY     52  41  66 CALM      30.29R
GLENDALE       MOSUNNY   55  39  54 CALM      30.28S
LUKE AFB       SUNNY     56  39  53 CALM      30.26R
DEER VALLEY    SUNNY     60  38  43 CALM      30.25S
SCOTTSDALE     SUNNY     57  39  51 CALM      30.27R
MESA-FALCON    MOSUNNY  N/A N/A N/A N12       30.24R
MESA-GATEWAY   MOSUNNY   52  39  62 CALM      30.28R
CHANDLER       MOSUNNY   55  41  58 VRB3      30.27R
$$

AZZ027-028-091800-
SOUTHWEST MARICOPA COUNTY AND PINAL COUNTY

CITY           SKY/WX    TMP DP  RH WIND       PRES   REMARKS
CASA GRANDE    NOT AVBL
GILA BEND      SUNNY     55  37  49 NE5       30.25R
$$

AZZ503-504-507>509-091800-
SOUTHEAST ARIZONA

CITY           SKY/WX    TMP DP  RH WIND       PRES   REMARKS
TUCSON         SUNNY     53  33  46 CALM      30.28S
DAVIS-MONTHAN  SUNNY     57  34  41 E5        30.26S
RYAN FIELD     SUNNY     54  34  47 CALM      30.28S
NOGALES        SUNNY     56  31  38 S3        30.28S
SIERRA VISTA   SUNNY     53  34  47 E5        30.33S
DOUGLAS        SUNNY     46  34  62 CALM      30.34R
SAFFORD        SUNNY     45  30  55 SE12      30.38R
$$

AZZ020-021-025-026-031-091800-
SOUTHWEST ARIZONA

CITY           SKY/WX    TMP DP  RH WIND       PRES   REMARKS
YUMA           PTSUNNY   59  22  24 N8        30.25R
$$

CAZ031-033-041-043-047-048-061-091800-
SOUTHERN CALIFORNIA

CITY           SKY/WX    TMP DP  RH WIND       PRES   REMARKS
DOWNTOWN L.A.  MOSUNNY   56  49  77 CALM      30.26
L.A. AIRPORT   PTSUNNY   58  50  75 SE5       30.27R
SAN DIEGO      PTSUNNY   57  49  74 CALM      30.29R
BURBANK        MOSUNNY   56  44  64 SW3       30.26R
ONTARIO        CLOUDY    54  44  69 CALM      30.27R
RIVERSIDE      PTSUNNY   51  44  77 NE5       30.27S
PALM SPRINGS   MOSUNNY   57  37  47 CALM      30.28R
EL CENTRO NAS  PTSUNNY   54  27  35 W3        30.28R
IMPERIAL       PTSUNNY   54  32  43 CALM      30.26R
BLYTHE         MOSUNNY   55  12  18 NW3       30.28R
NEEDLES        CLOUDY    58  18  21 N6        30.30R
$$

NVZ020-UTZ003-091800-
SOUTHERN NEVADA-UTAH

CITY           SKY/WX    TMP DP  RH WIND       PRES   REMARKS
LAS VEGAS      CLOUDY    49  13  23 SE3       30.31R
SALT LAKE CITY CLOUDY    33  29  85 W9        30.21R WCI  25
$$

NMZ009-TXZ055-091800-
NEW MEXICO-WEST TEXAS

CITY           SKY/WX    TMP DP  RH WIND       PRES   REMARKS
ALBUQUERQUE    MOSUNNY   33  24  69 VRB6      30.40S WCI  28
EL PASO        CLOUDY    36  28  73 N7        30.45R WCI  30
$$


........................KEY........................
SKY/WX - SKY CONDITION/WEATHER
TMP    - TEMPERATURE IN FAHRENHEIT
DP     - DEW POINT IN FAHRENHEIT
RH     - RELATIVE HUMIDITY IN PERCENT
WIND   - DIRECTION AND SPEED IN MILES PER HOUR (MPH)
VRB    - VARIABLE WIND DIRECTION
PRES   - MEAN SEA LEVEL PRESSURE IN INCHES OF MERCURY
         F - FALLING PRESSURE   R - RISING PRESSURE
         S - STEADY PRESSURE
VSB    - VISIBILITY IN MILES
HX     - HEAT INDEX IN FAHRENHEIT
WCI    - WIND CHILL INDEX IN FAHRENHEIT
TC     - TEMPERATURE IN CELSIUS WHICH IS ALSO KNOWN AS
         TEMPERATURE IN CENTIGRADE
AFB    - AIR FORCE BASE
         LUKE AFB IS LUKE AIR FORCE BASE
         DAVIS-MONTHAN IS DAVIS-MONTHAN AIR FORCE BASE
NAS    - NAVAL AIR STATION
         EL CENTRO NAS IS EL CENTRO NAVAL AIR STATION
N/A    - NOT AVAILABLE





USA.gov is the U.S. government's official web portal to all federal, state and local government web resources and services.